Location: Hilton Head Island
(32.2163°N, 80.7526°W)
Time: 03:13:58
(UTC-04:00)

Explorer 7 - Pass Details

Date: 16 February 2026
Orbit: 430 x 542 km, 50.2° (Epoch: 7 March)

Event Time Altitude Azimuth Distance (km) Brightness Sun altitude
Rises 13:39:55 0° 185° (S) 2,382 10.8 43.2°
Reaches altitude 10° 13:42:54 10° 156° (SSE) 1,531 9.7 42.9°
Maximum altitude 13:44:33 13° 127° (SE) 1,372 9.1 42.8°
Drops below altitude 10° 13:46:13 10° 98° (E) 1,554 9.1 42.7°
Sets 13:49:18 0° 69° (ENE) 2,452 9.8 42.4°
